Time,TemperatureF,DewpointF,PressureIn,WindDirection,WindDirectionDegrees,WindSpeedMPH,WindSpeedGustMPH,Humidity,HourlyPrecipIn,Conditions,Clouds,dailyrainin,SoftwareType,DateUTC
2013-05-01 00:02:00,65.5,34.8,29.83,South,180,0.0,0.0,32,0.00,,,0.00,WUHU21623XXSP,2013-05-01 07:02:00,
2013-05-01 00:07:00,65.3,34.6,29.84,South,180,0.0,0.0,32,0.00,,,0.00,WUHU21623XXSP,2013-05-01 07:07:00,
2013-05-01 00:12:00,65.1,34.4,29.84,South,180,0.0,0.0,32,0.00,,,0.00,WUHU21623XXSP,2013-05-01 07:12:00,
2013-05-01 00:17:00,64.9,34.3,29.84,South,180,0.0,0.0,32,0.00,,,0.00,WUHU21623XXSP,2013-05-01 07:17:00,
2013-05-01 00:22:00,64.8,34.1,29.83,South,180,0.0,0.0,32,0.00,,,0.00,WUHU21623XXSP,2013-05-01 07:22:00,
2013-05-01 00:27:00,64.8,34.1,29.83,South,180,0.0,0.0,32,0.00,,,0.00,WUHU21623XXSP,2013-05-01 07:27:00,
2013-05-01 00:32:00,64.8,34.1,29.83,South,180,0.0,0.0,32,0.00,,,0.00,WUHU21623XXSP,2013-05-01 07:32:00,
2013-05-01 00:37:00,64.8,34.1,29.83,South,180,0.0,0.0,32,0.00,,,0.00,WUHU21623XXSP,2013-05-01 07:37:00,
2013-05-01 00:42:00,64.8,34.1,29.84,South,180,0.0,0.0,32,0.00,,,0.00,WUHU21623XXSP,2013-05-01 07:42:00,
2013-05-01 00:47:00,64.0,33.5,29.84,South,180,0.0,0.0,32,0.00,,,0.00,WUHU21623XXSP,2013-05-01 07:47:00,
2013-05-01 00:52:00,64.0,33.5,29.84,South,180,0.0,0.0,32,0.00,,,0.00,WUHU21623XXSP,2013-05-01 07:52:00,
2013-05-01 00:57:00,64.0,33.5,29.84,South,180,0.0,0.0,32,0.00,,,0.00,WUHU21623XXSP,2013-05-01 07:57:00,
2013-05-01 01:02:00,63.7,33.9,29.85,South,180,0.0,0.0,33,0.00,,,0.00,WUHU21623XXSP,2013-05-01 08:02:00,
2013-05-01 01:07:00,63.5,33.7,29.85,South,180,0.0,0.0,33,0.00,,,0.00,WUHU21623XXSP,2013-05-01 08:07:00,
2013-05-01 01:12:00,62.8,33.1,29.85,South,180,0.0,0.0,33,0.00,,,0.00,WUHU21623XXSP,2013-05-01 08:12:00,
2013-05-01 01:17:00,62.6,32.9,29.85,South,180,0.0,0.0,33,0.00,,,0.00,WUHU21623XXSP,2013-05-01 08:17:00,
2013-05-01 01:22:00,62.4,32.7,29.85,South,180,0.0,0.0,33,0.00,,,0.00,WUHU21623XXSP,2013-05-01 08:22:00,
2013-05-01 01:27:00,62.4,33.5,29.85,South,180,0.0,0.0,34,0.00,,,0.00,WUHU21623XXSP,2013-05-01 08:27:00,
2013-05-01 01:32:00,62.8,33.1,29.85,South,180,0.0,0.0,33,0.00,,,0.00,WUHU21623XXSP,2013-05-01 08:32:00,
2013-05-01 01:37:00,63.0,33.2,29.85,South,180,0.0,0.0,33,0.00,,,0.00,WUHU21623XXSP,2013-05-01 08:37:00,
2013-05-01 01:42:00,63.0,33.2,29.85,South,180,0.0,4.3,33,0.00,,,0.00,WUHU21623XXSP,2013-05-01 08:42:00,
2013-05-01 01:47:00,63.0,33.2,29.85,South,180,0.0,4.3,33,0.00,,,0.00,WUHU21623XXSP,2013-05-01 08:47:00,
2013-05-01 01:52:00,63.0,33.1,29.85,South,180,0.0,0.0,33,0.00,,,0.00,WUHU21623XXSP,2013-05-01 08:52:00,
2013-05-01 01:57:00,62.6,32.9,29.85,South,180,0.0,0.0,33,0.00,,,0.00,WUHU21623XXSP,2013-05-01 08:57:00,
2013-05-01 02:02:00,62.1,32.4,29.85,South,180,0.0,0.0,33,0.00,,,0.00,WUHU21623XXSP,2013-05-01 09:02:00,
2013-05-01 02:07:00,61.9,33.0,29.85,South,180,0.0,0.0,34,0.00,,,0.00,WUHU21623XXSP,2013-05-01 09:07:00,
2013-05-01 02:12:00,61.5,32.6,29.86,South,180,0.0,0.0,34,0.00,,,0.00,WUHU21623XXSP,2013-05-01 09:12:00,
2013-05-01 02:17:00,61.7,32.8,29.86,South,180,0.0,0.0,34,0.00,,,0.00,WUHU21623XXSP,2013-05-01 09:17:00,
2013-05-01 02:22:00,61.5,32.6,29.86,South,180,0.0,0.0,34,0.00,,,0.00,WUHU21623XXSP,2013-05-01 09:22:00,
2013-05-01 02:27:00,61.3,32.5,29.86,South,180,0.0,0.0,34,0.00,,,0.00,WUHU21623XXSP,2013-05-01 09:27:00,
2013-05-01 02:32:00,61.2,32.3,29.86,South,180,0.0,0.0,34,0.00,,,0.00,WUHU21623XXSP,2013-05-01 09:32:00,
2013-05-01 02:37:00,60.6,32.6,29.86,South,180,0.0,0.0,35,0.00,,,0.00,WUHU21623XXSP,2013-05-01 09:37:00,
2013-05-01 02:42:00,60.6,32.6,29.87,South,180,0.0,0.0,35,0.00,,,0.00,WUHU21623XXSP,2013-05-01 09:42:00,
2013-05-01 02:47:00,60.6,32.6,29.87,South,180,0.0,0.0,35,0.00,,,0.00,WUHU21623XXSP,2013-05-01 09:47:00,
2013-05-01 02:52:00,60.4,32.4,29.87,South,180,0.0,0.0,35,0.00,,,0.00,WUHU21623XXSP,2013-05-01 09:52:00,
2013-05-01 02:57:00,60.4,33.1,29.87,South,180,0.0,0.0,36,0.00,,,0.00,WUHU21623XXSP,2013-05-01 09:57:00,
2013-05-01 03:02:00,60.1,32.8,29.87,South,180,0.0,0.0,36,0.00,,,0.00,WUHU21623XXSP,2013-05-01 10:02:00,
2013-05-01 03:07:00,60.3,33.0,29.87,South,180,0.0,0.0,36,0.00,,,0.00,WUHU21623XXSP,2013-05-01 10:07:00,
2013-05-01 03:12:00,60.3,33.0,29.87,South,180,0.0,0.0,36,0.00,,,0.00,WUHU21623XXSP,2013-05-01 10:12:00,
2013-05-01 03:17:00,60.3,33.0,29.87,East,90,0.0,7.2,36,0.00,,,0.00,WUHU21623XXSP,2013-05-01 10:17:00,
2013-05-01 03:22:00,60.1,32.8,29.88,East,90,0.0,7.2,36,0.00,,,0.00,WUHU21623XXSP,2013-05-01 10:22:00,
2013-05-01 03:27:00,60.4,33.1,29.88,East,90,0.0,5.1,36,0.00,,,0.00,WUHU21623XXSP,2013-05-01 10:27:00,
2013-05-01 03:32:00,60.4,33.1,29.88,East,90,0.0,0.0,36,0.00,,,0.00,WUHU21623XXSP,2013-05-01 10:32:00,
2013-05-01 03:37:00,60.1,32.8,29.88,East,90,0.0,0.0,36,0.00,,,0.00,WUHU21623XXSP,2013-05-01 10:37:00,
2013-05-01 03:42:00,60.1,32.8,29.88,East,90,0.0,0.0,36,0.00,,,0.00,WUHU21623XXSP,2013-05-01 10:42:00,
2013-05-01 03:47:00,59.7,32.5,29.88,East,90,0.0,0.0,36,0.00,,,0.00,WUHU21623XXSP,2013-05-01 10:47:00,
2013-05-01 03:52:00,59.2,32.0,29.89,East,90,0.0,1.1,36,0.00,,,0.00,WUHU21623XXSP,2013-05-01 10:52:00,
2013-05-01 03:57:00,59.2,32.0,29.89,East,90,1.8,5.6,36,0.00,,,0.00,WUHU21623XXSP,2013-05-01 10:57:00,
2013-05-01 04:02:00,59.0,32.6,29.89,East,90,0.0,5.6,37,0.00,,,0.00,WUHU21623XXSP,2013-05-01 11:02:00,
2013-05-01 04:07:00,58.8,33.1,29.89,East,90,0.9,5.1,38,0.00,,,0.00,WUHU21623XXSP,2013-05-01 11:07:00,
2013-05-01 04:12:00,58.8,33.1,29.89,East,90,0.0,4.5,38,0.00,,,0.00,WUHU21623XXSP,2013-05-01 11:12:00,
2013-05-01 04:17:00,58.8,33.1,29.90,East,90,0.0,5.1,38,0.00,,,0.00,WUHU21623XXSP,2013-05-01 11:17:00,
2013-05-01 04:22:00,58.8,33.8,29.90,East,90,0.0,5.1,39,0.00,,,0.00,WUHU21623XXSP,2013-05-01 11:22:00,
2013-05-01 04:27:00,58.3,33.4,29.90,SE,135,0.0,6.7,39,0.00,,,0.00,WUHU21623XXSP,2013-05-01 11:27:00,
2013-05-01 04:32:00,58.6,33.7,29.90,SE,135,0.0,6.7,39,0.00,,,0.00,WUHU21623XXSP,2013-05-01 11:32:00,
2013-05-01 04:37:00,58.6,33.7,29.90,ESE,112,0.0,3.6,39,0.00,,,0.00,WUHU21623XXSP,2013-05-01 11:37:00,
2013-05-01 04:42:00,59.2,33.4,29.91,NE,45,0.0,4.9,38,0.00,,,0.00,WUHU21623XXSP,2013-05-01 11:42:00,
2013-05-01 04:47:00,59.4,33.6,29.92,East,90,4.9,7.4,38,0.00,,,0.00,WUHU21623XXSP,2013-05-01 11:47:00,
2013-05-01 04:52:00,59.4,32.9,29.91,ESE,112,0.0,8.3,37,0.00,,,0.00,WUHU21623XXSP,2013-05-01 11:52:00,
2013-05-01 04:57:00,59.7,33.2,29.91,East,90,4.0,8.3,37,0.00,,,0.00,WUHU21623XXSP,2013-05-01 11:57:00,
2013-05-01 05:02:00,59.9,33.4,29.92,East,90,0.0,7.4,37,0.00,,,0.00,WUHU21623XXSP,2013-05-01 12:02:00,
2013-05-01 05:07:00,59.9,33.4,29.92,ENE,67,0.0,7.4,37,0.00,,,0.00,WUHU21623XXSP,2013-05-01 12:07:00,
2013-05-01 05:12:00,60.1,33.5,29.92,East,90,4.7,6.7,37,0.00,,,0.00,WUHU21623XXSP,2013-05-01 12:12:00,
2013-05-01 05:17:00,60.6,33.3,29.93,ESE,112,5.8,7.2,36,0.00,,,0.00,WUHU21623XXSP,2013-05-01 12:17:00,
2013-05-01 05:22:00,61.0,33.6,29.93,ENE,67,0.0,7.8,36,0.00,,,0.00,WUHU21623XXSP,2013-05-01 12:22:00,
2013-05-01 05:27:00,60.8,33.4,29.93,East,90,0.0,7.8,36,0.00,,,0.00,WUHU21623XXSP,2013-05-01 12:27:00,
2013-05-01 05:32:00,60.6,33.3,29.93,East,90,0.0,6.0,36,0.00,,,0.00,WUHU21623XXSP,2013-05-01 12:32:00,
2013-05-01 05:37:00,61.0,33.6,29.93,ESE,112,2.2,5.6,36,0.00,,,0.00,WUHU21623XXSP,2013-05-01 12:37:00,
2013-05-01 05:42:00,61.0,33.6,29.94,NNE,22,0.0,7.6,36,0.00,,,0.00,WUHU21623XXSP,2013-05-01 12:42:00,
2013-05-01 05:47:00,61.5,34.8,29.94,NNE,22,8.3,9.6,37,0.00,,,0.00,WUHU21623XXSP,2013-05-01 12:47:00,
2013-05-01 05:52:00,62.4,34.9,29.95,NNE,22,7.6,9.6,36,0.00,,,0.00,WUHU21623XXSP,2013-05-01 12:52:00,
2013-05-01 05:57:00,63.1,34.8,29.95,NNE,22,3.4,13.0,35,0.00,,,0.00,WUHU21623XXSP,2013-05-01 12:57:00,
2013-05-01 06:02:00,63.7,34.6,29.95,NNE,22,6.5,13.0,34,0.00,,,0.00,WUHU21623XXSP,2013-05-01 13:02:00,
2013-05-01 06:07:00,63.9,34.8,29.95,NNE,22,0.0,16.8,34,0.00,,,0.00,WUHU21623XXSP,2013-05-01 13:07:00,
2013-05-01 06:12:00,64.0,34.2,29.95,North,0,6.0,16.8,33,0.00,,,0.00,WUHU21623XXSP,2013-05-01 13:12:00,
2013-05-01 06:17:00,64.2,33.6,29.96,NNE,22,3.8,16.3,32,0.00,,,0.00,WUHU21623XXSP,2013-05-01 13:17:00,
2013-05-01 06:22:00,64.2,32.2,29.96,NNW,337,0.0,16.3,30,0.00,,,0.00,WUHU21623XXSP,2013-05-01 13:22:00,
2013-05-01 06:27:00,64.8,30.7,29.97,NNE,22,10.5,19.2,28,0.00,,,0.00,WUHU21623XXSP,2013-05-01 13:27:00,
2013-05-01 06:32:00,64.9,28.9,29.97,NNW,337,5.8,19.2,26,0.00,,,0.00,WUHU21623XXSP,2013-05-01 13:32:00,
2013-05-01 06:37:00,65.1,28.0,29.98,NNE,22,12.3,19.0,25,0.00,,,0.00,WUHU21623XXSP,2013-05-01 13:37:00,
2013-05-01 06:42:00,65.3,28.2,29.98,NNW,337,13.9,21.3,25,0.00,,,0.00,WUHU21623XXSP,2013-05-01 13:42:00,
2013-05-01 06:47:00,65.5,27.3,29.98,North,0,8.1,21.3,24,0.00,,,0.00,WUHU21623XXSP,2013-05-01 13:47:00,
2013-05-01 06:52:00,65.5,27.3,29.98,NNE,22,7.8,13.2,24,0.00,,,0.00,WUHU21623XXSP,2013-05-01 13:52:00,
2013-05-01 06:57:00,65.5,26.3,29.99,North,0,9.4,20.6,23,0.00,,,0.00,WUHU21623XXSP,2013-05-01 13:57:00,
2013-05-01 07:02:00,65.8,26.6,29.99,NNE,22,12.8,20.6,23,0.00,,,0.00,WUHU21623XXSP,2013-05-01 14:02:00,
2013-05-01 07:07:00,66.0,26.8,29.99,North,0,6.3,22.1,23,0.00,,,0.00,WUHU21623XXSP,2013-05-01 14:07:00,
2013-05-01 07:12:00,66.0,26.8,29.99,NNE,22,9.6,22.1,23,0.00,,,0.00,WUHU21623XXSP,2013-05-01 14:12:00,
2013-05-01 07:17:00,66.4,27.1,30.00,NNE,22,9.6,19.9,23,0.00,,,0.00,WUHU21623XXSP,2013-05-01 14:17:00,
2013-05-01 07:22:00,66.4,27.1,30.01,North,0,11.4,20.4,23,0.00,,,0.00,WUHU21623XXSP,2013-05-01 14:22:00,
2013-05-01 07:27:00,66.7,26.4,30.01,NNE,22,6.3,20.4,22,0.00,,,0.00,WUHU21623XXSP,2013-05-01 14:27:00,
2013-05-01 07:32:00,66.9,26.5,30.01,NE,45,12.5,18.8,22,0.00,,,0.00,WUHU21623XXSP,2013-05-01 14:32:00,
2013-05-01 07:37:00,66.9,26.5,30.01,NNE,22,9.6,20.8,22,0.00,,,0.00,WUHU21623XXSP,2013-05-01 14:37:00,
2013-05-01 07:42:00,67.1,26.7,30.01,NNW,337,8.7,29.5,22,0.00,,,0.00,WUHU21623XXSP,2013-05-01 14:42:00,
2013-05-01 07:47:00,67.3,25.9,30.02,NNE,22,8.1,29.5,21,0.00,,,0.00,WUHU21623XXSP,2013-05-01 14:47:00,
2013-05-01 07:52:00,67.6,25.2,30.02,North,0,6.0,22.4,20,0.00,,,0.00,WUHU21623XXSP,2013-05-01 14:52:00,
2013-05-01 07:57:00,67.6,25.2,30.02,NNE,22,11.9,22.1,20,0.00,,,0.00,WUHU21623XXSP,2013-05-01 14:57:00,
2013-05-01 08:02:00,67.8,25.4,30.02,NNE,22,14.1,22.6,20,0.00,,,0.00,WUHU21623XXSP,2013-05-01 15:02:00,
2013-05-01 08:07:00,67.8,25.4,30.02,NNE,22,4.3,22.6,20,0.00,,,0.00,WUHU21623XXSP,2013-05-01 15:07:00,
2013-05-01 08:12:00,68.0,23.9,30.03,NNE,22,20.8,20.8,19,0.00,,,0.00,WUHU21623XXSP,2013-05-01 15:12:00,
2013-05-01 08:17:00,68.2,24.0,30.03,NNE,22,17.9,20.8,19,0.00,,,0.00,WUHU21623XXSP,2013-05-01 15:17:00,
2013-05-01 08:22:00,68.0,23.9,30.03,NNE,22,7.4,30.0,19,0.00,,,0.00,WUHU21623XXSP,2013-05-01 15:22:00,
2013-05-01 08:27:00,68.0,23.9,30.03,North,0,6.3,30.0,19,0.00,,,0.00,WUHU21623XXSP,2013-05-01 15:27:00,
2013-05-01 08:32:00,68.2,22.4,30.04,North,0,19.7,26.4,18,0.00,,,0.00,WUHU21623XXSP,2013-05-01 15:32:00,
2013-05-01 08:37:00,68.5,22.7,30.03,NNE,22,19.7,25.7,18,0.00,,,0.00,WUHU21623XXSP,2013-05-01 15:37:00,
2013-05-01 08:42:00,68.5,21.1,30.04,North,0,10.1,26.2,17,0.00,,,0.00,WUHU21623XXSP,2013-05-01 15:42:00,
2013-05-01 08:47:00,68.7,21.3,30.04,NNW,337,7.4,26.2,17,0.00,,,0.00,WUHU21623XXSP,2013-05-01 15:47:00,
2013-05-01 08:52:00,68.9,21.4,30.04,North,0,10.1,22.8,17,0.00,,,0.00,WUHU21623XXSP,2013-05-01 15:52:00,
2013-05-01 08:57:00,69.1,21.5,30.04,NNE,22,8.1,22.8,17,0.00,,,0.00,WUHU21623XXSP,2013-05-01 15:57:00,
2013-05-01 09:02:00,69.3,20.1,30.05,NNE,22,13.4,23.3,16,0.00,,,0.00,WUHU21623XXSP,2013-05-01 16:02:00,
2013-05-01 09:07:00,69.4,20.2,30.05,North,0,9.6,23.3,16,0.00,,,0.00,WUHU21623XXSP,2013-05-01 16:07:00,
2013-05-01 09:12:00,69.6,20.3,30.06,NE,45,3.8,22.1,16,0.00,,,0.00,WUHU21623XXSP,2013-05-01 16:12:00,
2013-05-01 09:17:00,70.2,20.8,30.06,NE,45,13.9,22.1,16,0.00,,,0.00,WUHU21623XXSP,2013-05-01 16:17:00,
2013-05-01 09:22:00,69.6,18.7,30.06,NNE,22,7.2,19.0,15,0.00,,,0.00,WUHU21623XXSP,2013-05-01 16:22:00,
2013-05-01 09:27:00,70.2,19.1,30.06,NNE,22,11.0,19.0,15,0.00,,,0.00,WUHU21623XXSP,2013-05-01 16:27:00,
2013-05-01 09:32:00,70.5,19.4,30.06,NNE,22,4.7,18.6,15,0.00,,,0.00,WUHU21623XXSP,2013-05-01 16:32:00,
2013-05-01 09:37:00,70.7,19.6,30.06,NE,45,11.9,14.3,15,0.00,,,0.00,WUHU21623XXSP,2013-05-01 16:37:00,
2013-05-01 09:42:00,70.9,19.7,30.06,NE,45,6.9,14.3,15,0.00,,,0.00,WUHU21623XXSP,2013-05-01 16:42:00,
2013-05-01 09:47:00,71.4,20.2,30.06,NNE,22,3.6,15.0,15,0.00,,,0.00,WUHU21623XXSP,2013-05-01 16:47:00,
2013-05-01 09:52:00,71.2,20.0,30.06,NE,45,14.8,15.0,15,0.00,,,0.00,WUHU21623XXSP,2013-05-01 16:52:00,
2013-05-01 09:57:00,71.2,20.0,30.06,NNE,22,8.3,15.2,15,0.00,,,0.00,WUHU21623XXSP,2013-05-01 16:57:00,
2013-05-01 10:02:00,71.2,16.8,30.06,NE,45,6.3,17.2,13,0.00,,,0.00,WUHU21623XXSP,2013-05-01 17:02:00,
2013-05-01 10:07:00,71.4,16.9,30.06,North,0,11.9,21.7,13,0.00,,,0.00,WUHU21623XXSP,2013-05-01 17:07:00,
2013-05-01 10:12:00,71.2,16.8,30.07,NNE,22,0.0,23.5,13,0.00,,,0.00,WUHU21623XXSP,2013-05-01 17:12:00,
2013-05-01 10:17:00,71.8,15.6,30.07,NNE,22,0.0,23.5,12,0.00,,,0.00,WUHU21623XXSP,2013-05-01 17:17:00,
2013-05-01 10:22:00,72.1,15.9,30.07,NNE,22,8.3,14.1,12,0.00,,,0.00,WUHU21623XXSP,2013-05-01 17:22:00,
2013-05-01 10:27:00,72.3,16.0,30.07,East,90,15.7,15.7,12,0.00,,,0.00,WUHU21623XXSP,2013-05-01 17:27:00,
2013-05-01 10:32:00,72.7,16.3,30.07,North,0,6.9,19.2,12,0.00,,,0.00,WUHU21623XXSP,2013-05-01 17:32:00,
2013-05-01 10:37:00,72.7,16.3,30.08,NE,45,7.6,19.2,12,0.00,,,0.00,WUHU21623XXSP,2013-05-01 17:37:00,
2013-05-01 10:42:00,72.7,16.3,30.08,NE,45,3.4,17.7,12,0.00,,,0.00,WUHU21623XXSP,2013-05-01 17:42:00,
2013-05-01 10:47:00,73.9,17.3,30.08,North,0,16.3,16.6,12,0.00,,,0.00,WUHU21623XXSP,2013-05-01 17:47:00,
2013-05-01 10:52:00,73.6,17.0,30.08,North,0,22.4,22.4,12,0.00,,,0.00,WUHU21623XXSP,2013-05-01 17:52:00,
2013-05-01 10:57:00,73.4,16.9,30.08,NE,45,5.4,22.4,12,0.00,,,0.00,WUHU21623XXSP,2013-05-01 17:57:00,
2013-05-01 11:02:00,73.6,17.0,30.08,NNE,22,7.2,17.9,12,0.00,,,0.00,WUHU21623XXSP,2013-05-01 18:02:00,
2013-05-01 11:07:00,73.9,17.3,30.09,NNE,22,5.8,17.9,12,0.00,,,0.00,WUHU21623XXSP,2013-05-01 18:07:00,
2013-05-01 11:12:00,74.3,17.6,30.09,NE,45,15.4,15.4,12,0.00,,,0.00,WUHU21623XXSP,2013-05-01 18:12:00,
2013-05-01 11:17:00,74.5,17.7,30.08,NE,45,4.7,23.7,12,0.00,,,0.00,WUHU21623XXSP,2013-05-01 18:17:00,
2013-05-01 11:22:00,75.0,18.1,30.08,NNE,22,6.0,23.7,12,0.00,,,0.00,WUHU21623XXSP,2013-05-01 18:22:00,
2013-05-01 11:27:00,74.7,17.8,30.08,NNE,22,11.0,22.8,12,0.00,,,0.00,WUHU21623XXSP,2013-05-01 18:27:00,
2013-05-01 11:32:00,75.4,18.4,30.08,NNE,22,11.6,22.8,12,0.00,,,0.00,WUHU21623XXSP,2013-05-01 18:32:00,
2013-05-01 11:37:00,74.8,17.9,30.08,NNE,22,7.8,18.1,12,0.00,,,0.00,WUHU21623XXSP,2013-05-01 18:37:00,
2013-05-01 11:42:00,74.8,17.9,30.09,NNE,22,4.9,18.8,12,0.00,,,0.00,WUHU21623XXSP,2013-05-01 18:42:00,
2013-05-01 11:47:00,74.8,17.9,30.09,NNE,22,5.8,21.5,12,0.00,,,0.00,WUHU21623XXSP,2013-05-01 18:47:00,
2013-05-01 11:52:00,75.6,18.5,30.09,North,0,4.5,21.5,12,0.00,,,0.00,WUHU21623XXSP,2013-05-01 18:52:00,
2013-05-01 11:57:00,75.7,17.0,30.09,ENE,67,8.9,19.9,11,0.00,,,0.00,WUHU21623XXSP,2013-05-01 18:57:00,
2013-05-01 12:02:00,75.7,17.0,30.09,NNE,22,10.3,17.7,11,0.00,,,0.00,WUHU21623XXSP,2013-05-01 19:02:00,
2013-05-01 12:07:00,76.1,17.3,30.09,NE,45,4.9,17.7,11,0.00,,,0.00,WUHU21623XXSP,2013-05-01 19:07:00,
2013-05-01 12:12:00,75.7,17.0,30.09,NNE,22,12.8,23.9,11,0.00,,,0.00,WUHU21623XXSP,2013-05-01 19:12:00,
2013-05-01 12:17:00,75.7,17.0,30.09,NNE,22,15.7,23.9,11,0.00,,,0.00,WUHU21623XXSP,2013-05-01 19:17:00,
2013-05-01 12:22:00,75.7,17.0,30.09,NE,45,8.3,20.6,11,0.00,,,0.00,WUHU21623XXSP,2013-05-01 19:22:00,
2013-05-01 12:27:00,75.7,17.0,30.09,NNE,22,6.9,22.4,11,0.00,,,0.00,WUHU21623XXSP,2013-05-01 19:27:00,
2013-05-01 12:32:00,75.9,17.1,30.09,NNE,22,13.2,22.4,11,0.00,,,0.00,WUHU21623XXSP,2013-05-01 19:32:00,
2013-05-01 12:37:00,76.5,17.6,30.10,NNE,22,11.4,19.5,11,0.00,,,0.00,WUHU21623XXSP,2013-05-01 19:37:00,
2013-05-01 12:42:00,76.3,17.4,30.09,NNE,22,11.2,21.3,11,0.00,,,0.00,WUHU21623XXSP,2013-05-01 19:42:00,
2013-05-01 12:47:00,76.6,17.7,30.09,NNE,22,3.6,21.3,11,0.00,,,0.00,WUHU21623XXSP,2013-05-01 19:47:00,
2013-05-01 12:52:00,76.6,17.7,30.09,NE,45,9.8,21.9,11,0.00,,,0.00,WUHU21623XXSP,2013-05-01 19:52:00,
2013-05-01 12:57:00,76.3,17.4,30.09,NE,45,9.6,21.9,11,0.00,,,0.00,WUHU21623XXSP,2013-05-01 19:57:00,
2013-05-01 13:02:00,76.3,17.4,30.09,NE,45,4.0,18.8,11,0.00,,,0.00,WUHU21623XXSP,2013-05-01 20:02:00,
2013-05-01 13:07:00,76.6,17.7,30.09,North,0,10.1,21.7,11,0.00,,,0.00,WUHU21623XXSP,2013-05-01 20:07:00,
2013-05-01 13:12:00,76.6,17.7,30.10,NNE,22,8.1,21.7,11,0.00,,,0.00,WUHU21623XXSP,2013-05-01 20:12:00,
2013-05-01 13:17:00,76.8,17.9,30.09,NE,45,5.6,19.9,11,0.00,,,0.00,WUHU21623XXSP,2013-05-01 20:17:00,
2013-05-01 13:22:00,77.2,18.1,30.10,North,0,4.9,19.9,11,0.00,,,0.00,WUHU21623XXSP,2013-05-01 20:22:00,
2013-05-01 13:27:00,77.4,18.2,30.10,WSW,247,9.2,18.8,11,0.00,,,0.00,WUHU21623XXSP,2013-05-01 20:27:00,
2013-05-01 13:33:00,77.2,18.1,30.10,WSW,247,19.2,21.5,11,0.00,,,0.00,WUHU21623XXSP,2013-05-01 20:33:00,
2013-05-01 13:38:00,77.7,18.5,30.09,WSW,247,19.0,21.5,11,0.00,,,0.00,WUHU21623XXSP,2013-05-01 20:38:00,
2013-05-01 13:43:00,78.1,18.8,30.09,WSW,247,2.5,19.2,11,0.00,,,0.00,WUHU21623XXSP,2013-05-01 20:43:00,
2013-05-01 13:48:00,77.7,18.5,30.09,ENE,67,8.5,21.5,11,0.00,,,0.00,WUHU21623XXSP,2013-05-01 20:48:00,
2013-05-01 13:53:00,77.2,18.1,30.10,WSW,247,2.2,21.5,11,0.00,,,0.00,WUHU21623XXSP,2013-05-01 20:53:00,
2013-05-01 13:58:00,77.5,18.4,30.10,WSW,247,2.0,18.8,11,0.00,,,0.00,WUHU21623XXSP,2013-05-01 20:58:00,
2013-05-01 14:03:00,77.5,18.4,30.09,WSW,247,4.5,20.8,11,0.00,,,0.00,WUHU21623XXSP,2013-05-01 21:03:00,
2013-05-01 14:08:00,78.1,18.8,30.10,WSW,247,2.7,20.8,11,0.00,,,0.00,WUHU21623XXSP,2013-05-01 21:08:00,
2013-05-01 14:13:00,77.9,18.6,30.09,WSW,247,12.1,18.6,11,0.00,,,0.00,WUHU21623XXSP,2013-05-01 21:13:00,
2013-05-01 14:18:00,78.1,18.8,30.10,WSW,247,15.9,19.0,11,0.00,,,0.00,WUHU21623XXSP,2013-05-01 21:18:00,
2013-05-01 14:23:00,78.6,19.1,30.10,WSW,247,1.6,19.0,11,0.00,,,0.00,WUHU21623XXSP,2013-05-01 21:23:00,
2013-05-01 14:28:00,79.0,19.4,30.10,WSW,247,13.0,17.0,11,0.00,,,0.00,WUHU21623XXSP,2013-05-01 21:28:00,
2013-05-01 14:33:00,77.9,18.6,30.09,WSW,247,0.0,17.0,11,0.00,,,0.00,WUHU21623XXSP,2013-05-01 21:33:00,
2013-05-01 14:38:00,78.6,17.5,30.09,WSW,247,7.6,17.0,10,0.00,,,0.00,WUHU21623XXSP,2013-05-01 21:38:00,
2013-05-01 14:43:00,78.1,18.8,30.09,WSW,247,6.3,19.9,11,0.00,,,0.00,WUHU21623XXSP,2013-05-01 21:43:00,
2013-05-01 14:48:00,78.3,18.9,30.09,WSW,247,3.4,19.9,11,0.00,,,0.00,WUHU21623XXSP,2013-05-01 21:48:00,
2013-05-01 14:53:00,78.6,19.1,30.09,WSW,247,10.3,21.7,11,0.00,,,0.00,WUHU21623XXSP,2013-05-01 21:53:00,
2013-05-01 14:58:00,78.1,17.1,30.09,WSW,247,15.0,21.7,10,0.00,,,0.00,WUHU21623XXSP,2013-05-01 21:58:00,
2013-05-01 15:03:00,77.5,18.4,30.09,WSW,247,6.0,21.7,11,0.00,,,0.00,WUHU21623XXSP,2013-05-01 22:03:00,
2013-05-01 15:08:00,78.6,19.1,30.09,WSW,247,9.2,23.9,11,0.00,,,0.00,WUHU21623XXSP,2013-05-01 22:08:00,
2013-05-01 15:13:00,78.3,18.9,30.09,WSW,247,14.8,23.9,11,0.00,,,0.00,WUHU21623XXSP,2013-05-01 22:13:00,
2013-05-01 15:18:00,78.6,19.1,30.09,WSW,247,15.7,19.0,11,0.00,,,0.00,WUHU21623XXSP,2013-05-01 22:18:00,
2013-05-01 15:23:00,78.6,19.1,30.09,WSW,247,8.1,17.9,11,0.00,,,0.00,WUHU21623XXSP,2013-05-01 22:23:00,
2013-05-01 15:28:00,79.0,17.7,30.09,WSW,247,1.1,13.6,10,0.00,,,0.00,WUHU21623XXSP,2013-05-01 22:28:00,
2013-05-01 15:33:00,78.6,19.1,30.09,WSW,247,10.5,19.2,11,0.00,,,0.00,WUHU21623XXSP,2013-05-01 22:33:00,
2013-05-01 15:38:00,78.1,18.8,30.09,WSW,247,8.1,19.2,11,0.00,,,0.00,WUHU21623XXSP,2013-05-01 22:38:00,
2013-05-01 15:43:00,78.4,19.0,30.09,WSW,247,14.3,18.6,11,0.00,,,0.00,WUHU21623XXSP,2013-05-01 22:43:00,
2013-05-01 15:48:00,78.3,18.9,30.09,WSW,247,0.0,20.1,11,0.00,,,0.00,WUHU21623XXSP,2013-05-01 22:48:00,
2013-05-01 15:53:00,78.6,19.1,30.09,WSW,247,14.5,20.1,11,0.00,,,0.00,WUHU21623XXSP,2013-05-01 22:53:00,
2013-05-01 15:58:00,78.4,19.0,30.09,WSW,247,3.6,16.8,11,0.00,,,0.00,WUHU21623XXSP,2013-05-01 22:58:00,
2013-05-01 16:03:00,78.4,19.0,30.09,WSW,247,5.8,13.6,11,0.00,,,0.00,WUHU21623XXSP,2013-05-01 23:03:00,
2013-05-01 16:08:00,78.4,19.0,30.09,WSW,247,3.6,13.6,11,0.00,,,0.00,WUHU21623XXSP,2013-05-01 23:08:00,
2013-05-01 16:13:00,78.6,19.1,30.10,WSW,247,3.8,13.6,11,0.00,,,0.00,WUHU21623XXSP,2013-05-01 23:13:00,
2013-05-01 16:18:00,78.1,18.8,30.09,WSW,247,11.9,15.2,11,0.00,,,0.00,WUHU21623XXSP,2013-05-01 23:18:00,
2013-05-01 16:23:00,78.6,19.1,30.09,WSW,247,3.4,15.2,11,0.00,,,0.00,WUHU21623XXSP,2013-05-01 23:23:00,
2013-05-01 16:28:00,78.1,18.8,30.10,WSW,247,2.9,18.3,11,0.00,,,0.00,WUHU21623XXSP,2013-05-01 23:28:00,
2013-05-01 16:33:00,77.9,18.6,30.09,WSW,247,4.5,18.3,11,0.00,,,0.00,WUHU21623XXSP,2013-05-01 23:33:00,
2013-05-01 16:38:00,77.7,18.5,30.09,WSW,247,11.6,17.7,11,0.00,,,0.00,WUHU21623XXSP,2013-05-01 23:38:00,
2013-05-01 16:43:00,77.5,18.4,30.09,WSW,247,0.0,19.2,11,0.00,,,0.00,WUHU21623XXSP,2013-05-01 23:43:00,
2013-05-01 16:48:00,77.9,18.6,30.09,WSW,247,3.6,19.2,11,0.00,,,0.00,WUHU21623XXSP,2013-05-01 23:48:00,
2013-05-01 16:53:00,77.5,18.4,30.09,WSW,247,8.1,21.5,11,0.00,,,0.00,WUHU21623XXSP,2013-05-01 23:53:00,
2013-05-01 16:58:00,77.5,18.4,30.10,WSW,247,0.0,21.5,11,0.00,,,0.00,WUHU21623XXSP,2013-05-01 23:58:00,
2013-05-01 17:03:00,77.7,18.5,30.10,WSW,247,8.3,13.4,11,0.00,,,0.00,WUHU21623XXSP,2013-05-02 00:03:00,
2013-05-01 17:08:00,77.2,18.1,30.10,WSW,247,10.3,21.3,11,0.00,,,0.00,WUHU21623XXSP,2013-05-02 00:08:00,
2013-05-01 17:13:00,77.2,18.1,30.09,WSW,247,0.9,21.3,11,0.00,,,0.00,WUHU21623XXSP,2013-05-02 00:13:00,
2013-05-01 17:18:00,77.5,16.7,30.09,WSW,247,4.3,18.1,10,0.00,,,0.00,WUHU21623XXSP,2013-05-02 00:18:00,
2013-05-01 17:23:00,77.2,18.1,30.10,WSW,247,2.0,14.3,11,0.00,,,0.00,WUHU21623XXSP,2013-05-02 00:23:00,
2013-05-01 17:28:00,77.2,18.1,30.09,WSW,247,3.8,15.2,11,0.00,,,0.00,WUHU21623XXSP,2013-05-02 00:28:00,
2013-05-01 17:33:00,77.0,18.0,30.09,WSW,247,7.6,15.7,11,0.00,,,0.00,WUHU21623XXSP,2013-05-02 00:33:00,
2013-05-01 17:38:00,77.2,18.1,30.10,WSW,247,13.2,15.7,11,0.00,,,0.00,WUHU21623XXSP,2013-05-02 00:38:00,
2013-05-01 17:43:00,76.6,17.7,30.09,WSW,247,5.4,18.6,11,0.00,,,0.00,WUHU21623XXSP,2013-05-02 00:43:00,
2013-05-01 17:48:00,76.3,17.4,30.10,WSW,247,13.0,18.6,11,0.00,,,0.00,WUHU21623XXSP,2013-05-02 00:48:00,
2013-05-01 17:53:00,76.3,17.4,30.10,WSW,247,3.8,17.4,11,0.00,,,0.00,WUHU21623XXSP,2013-05-02 00:53:00,
2013-05-01 17:58:00,76.3,17.4,30.09,WSW,247,8.1,16.3,11,0.00,,,0.00,WUHU21623XXSP,2013-05-02 00:58:00,
2013-05-01 18:03:00,76.1,17.3,30.09,WSW,247,11.4,19.9,11,0.00,,,0.00,WUHU21623XXSP,2013-05-02 01:03:00,
2013-05-01 18:08:00,76.3,17.4,30.09,WSW,247,0.0,19.9,11,0.00,,,0.00,WUHU21623XXSP,2013-05-02 01:08:00,
2013-05-01 18:13:00,76.3,17.4,30.10,WSW,247,6.0,15.0,11,0.00,,,0.00,WUHU21623XXSP,2013-05-02 01:13:00,
2013-05-01 18:18:00,75.9,17.1,30.10,WSW,247,14.3,16.3,11,0.00,,,0.00,WUHU21623XXSP,2013-05-02 01:18:00,
2013-05-01 18:23:00,75.7,17.0,30.09,WSW,247,13.6,16.3,11,0.00,,,0.00,WUHU21623XXSP,2013-05-02 01:23:00,
2013-05-01 18:28:00,75.7,17.0,30.10,WSW,247,4.3,14.5,11,0.00,,,0.00,WUHU21623XXSP,2013-05-02 01:28:00,
2013-05-01 18:33:00,75.6,16.8,30.10,WSW,247,9.4,14.5,11,0.00,,,0.00,WUHU21623XXSP,2013-05-02 01:33:00,
2013-05-01 18:38:00,75.0,16.4,30.10,WSW,247,4.5,16.8,11,0.00,,,0.00,WUHU21623XXSP,2013-05-02 01:38:00,
2013-05-01 18:43:00,75.0,16.4,30.10,WSW,247,8.1,16.8,11,0.00,,,0.00,WUHU21623XXSP,2013-05-02 01:43:00,
2013-05-01 18:48:00,74.7,16.2,30.10,WSW,247,9.6,13.9,11,0.00,,,0.00,WUHU21623XXSP,2013-05-02 01:48:00,
2013-05-01 18:53:00,74.3,15.9,30.10,WSW,247,6.9,13.2,11,0.00,,,0.00,WUHU21623XXSP,2013-05-02 01:53:00,
2013-05-01 18:58:00,74.3,15.9,30.10,WSW,247,0.0,12.8,11,0.00,,,0.00,WUHU21623XXSP,2013-05-02 01:58:00,
2013-05-01 19:03:00,73.9,15.7,30.10,WSW,247,0.0,12.5,11,0.00,,,0.00,WUHU21623XXSP,2013-05-02 02:03:00,
2013-05-01 19:08:00,73.8,15.5,30.10,NNE,22,0.0,12.5,11,0.00,,,0.00,WUHU21623XXSP,2013-05-02 02:08:00,
2013-05-01 19:13:00,73.2,15.1,30.11,NNE,22,4.9,12.1,11,0.00,,,0.00,WUHU21623XXSP,2013-05-02 02:13:00,
2013-05-01 19:18:00,73.0,15.0,30.11,NNE,22,5.8,12.1,11,0.00,,,0.00,WUHU21623XXSP,2013-05-02 02:18:00,
2013-05-01 19:23:00,72.5,14.5,30.11,NNE,22,0.0,11.9,11,0.00,,,0.00,WUHU21623XXSP,2013-05-02 02:23:00,
2013-05-01 19:28:00,72.3,14.4,30.11,NNE,22,0.0,11.9,11,0.00,,,0.00,WUHU21623XXSP,2013-05-02 02:28:00,
2013-05-01 19:33:00,72.0,14.1,30.11,NNE,22,0.0,7.4,11,0.00,,,0.00,WUHU21623XXSP,2013-05-02 02:33:00,
2013-05-01 19:38:00,71.8,14.0,30.11,NNE,22,0.0,7.4,11,0.00,,,0.00,WUHU21623XXSP,2013-05-02 02:38:00,
2013-05-01 19:43:00,71.4,12.1,30.11,NNE,22,0.0,7.4,10,0.00,,,0.00,WUHU21623XXSP,2013-05-02 02:43:00,
2013-05-01 19:48:00,71.4,12.1,30.11,NNE,22,3.8,12.3,10,0.00,,,0.00,WUHU21623XXSP,2013-05-02 02:48:00,
2013-05-01 19:53:00,71.2,11.9,30.11,NNE,22,0.0,12.3,10,0.00,,,0.00,WUHU21623XXSP,2013-05-02 02:53:00,
2013-05-01 19:58:00,71.2,11.9,30.11,NNE,22,2.7,10.7,10,0.00,,,0.00,WUHU21623XXSP,2013-05-02 02:58:00,
2013-05-01 20:03:00,70.9,11.6,30.11,NNE,22,2.0,10.7,10,0.00,,,0.00,WUHU21623XXSP,2013-05-02 03:03:00,
2013-05-01 20:08:00,70.9,11.6,30.12,NNW,337,1.6,8.9,10,0.00,,,0.00,WUHU21623XXSP,2013-05-02 03:08:00,
2013-05-01 20:13:00,70.9,11.6,30.12,NNE,22,10.7,12.1,10,0.00,,,0.00,WUHU21623XXSP,2013-05-02 03:13:00,
2013-05-01 20:18:00,70.7,11.5,30.12,NNE,22,0.0,12.1,10,0.00,,,0.00,WUHU21623XXSP,2013-05-02 03:18:00,
2013-05-01 20:23:00,70.3,11.2,30.12,North,0,8.1,8.9,10,0.00,,,0.00,WUHU21623XXSP,2013-05-02 03:23:00,
2013-05-01 20:28:00,70.3,11.2,30.12,North,0,7.8,10.1,10,0.00,,,0.00,WUHU21623XXSP,2013-05-02 03:28:00,
2013-05-01 20:33:00,70.2,11.0,30.13,North,0,9.2,10.1,10,0.00,,,0.00,WUHU21623XXSP,2013-05-02 03:33:00,
2013-05-01 20:38:00,70.2,11.0,30.13,North,0,3.8,10.5,10,0.00,,,0.00,WUHU21623XXSP,2013-05-02 03:38:00,
2013-05-01 20:43:00,70.2,11.0,30.13,NNE,22,0.0,10.5,10,0.00,,,0.00,WUHU21623XXSP,2013-05-02 03:43:00,
2013-05-01 20:48:00,70.0,10.9,30.14,North,0,3.4,11.9,10,0.00,,,0.00,WUHU21623XXSP,2013-05-02 03:48:00,
2013-05-01 20:53:00,70.0,10.9,30.14,NNE,22,10.3,11.9,10,0.00,,,0.00,WUHU21623XXSP,2013-05-02 03:53:00,
2013-05-01 20:58:00,70.0,10.9,30.14,NNE,22,11.2,17.0,10,0.00,,,0.00,WUHU21623XXSP,2013-05-02 03:58:00,
2013-05-01 21:01:00,70.0,10.9,30.13,North,0,12.1,17.0,10,0.00,,,0.00,WUHU21623XXSP,2013-05-02 04:01:00,
2013-05-01 21:06:00,69.6,10.6,30.14,NNE,22,5.1,17.0,10,0.00,,,0.00,WUHU21623XXSP,2013-05-02 04:06:00,
2013-05-01 21:12:00,69.6,10.6,30.14,NNE,22,4.5,16.6,10,0.00,,,0.00,WUHU21623XXSP,2013-05-02 04:12:00,
2013-05-01 21:17:00,69.4,10.5,30.14,North,0,1.3,16.6,10,0.00,,,0.00,WUHU21623XXSP,2013-05-02 04:17:00,
2013-05-01 21:21:00,69.4,10.5,30.14,NNE,22,4.3,15.2,10,0.00,,,0.00,WUHU21623XXSP,2013-05-02 04:21:00,
2013-05-01 21:26:00,69.4,10.5,30.15,North,0,9.6,17.4,10,0.00,,,0.00,WUHU21623XXSP,2013-05-02 04:26:00,
2013-05-01 21:31:00,69.1,10.3,30.14,NNE,22,6.5,17.4,10,0.00,,,0.00,WUHU21623XXSP,2013-05-02 04:31:00,
2013-05-01 21:36:00,69.1,10.3,30.15,North,0,7.8,14.3,10,0.00,,,0.00,WUHU21623XXSP,2013-05-02 04:36:00,
2013-05-01 21:42:00,69.1,10.3,30.15,North,0,3.4,17.2,10,0.00,,,0.00,WUHU21623XXSP,2013-05-02 04:42:00,
2013-05-01 21:47:00,69.1,10.3,30.15,NNE,22,0.7,17.2,10,0.00,,,0.00,WUHU21623XXSP,2013-05-02 04:47:00,
2013-05-01 21:52:00,68.9,10.1,30.15,NNE,22,10.5,17.4,10,0.00,,,0.00,WUHU21623XXSP,2013-05-02 04:52:00,
2013-05-01 21:57:00,68.7,10.0,30.15,North,0,3.8,17.4,10,0.00,,,0.00,WUHU21623XXSP,2013-05-02 04:57:00,
2013-05-01 22:02:00,68.5,9.9,30.16,NNE,22,0.0,12.1,10,0.00,,,0.00,WUHU21623XXSP,2013-05-02 05:02:00,
2013-05-01 22:07:00,68.4,9.8,30.16,North,0,1.8,12.1,10,0.00,,,0.00,WUHU21623XXSP,2013-05-02 05:07:00,
2013-05-01 22:12:00,68.4,9.8,30.16,NNE,22,1.1,12.1,10,0.00,,,0.00,WUHU21623XXSP,2013-05-02 05:12:00,
2013-05-01 22:17:00,68.2,9.6,30.16,NNE,22,4.5,12.1,10,0.00,,,0.00,WUHU21623XXSP,2013-05-02 05:17:00,
2013-05-01 22:22:00,68.2,9.6,30.16,North,0,11.0,12.1,10,0.00,,,0.00,WUHU21623XXSP,2013-05-02 05:22:00,
2013-05-01 22:27:00,67.8,9.4,30.16,North,0,3.4,11.0,10,0.00,,,0.00,WUHU21623XXSP,2013-05-02 05:27:00,
2013-05-01 22:32:00,67.8,9.4,30.17,North,0,1.6,8.5,10,0.00,,,0.00,WUHU21623XXSP,2013-05-02 05:32:00,
2013-05-01 22:37:00,67.6,9.2,30.17,NNE,22,0.0,11.0,10,0.00,,,0.00,WUHU21623XXSP,2013-05-02 05:37:00,
2013-05-01 22:42:00,67.6,9.2,30.17,NNE,22,8.3,11.4,10,0.00,,,0.00,WUHU21623XXSP,2013-05-02 05:42:00,
2013-05-01 22:47:00,67.6,9.2,30.16,NNE,22,0.0,11.4,10,0.00,,,0.00,WUHU21623XXSP,2013-05-02 05:47:00,
2013-05-01 22:52:00,67.6,9.2,30.17,NNE,22,2.0,15.2,10,0.00,,,0.00,WUHU21623XXSP,2013-05-02 05:52:00,
2013-05-01 22:57:00,67.6,9.2,30.17,NNE,22,0.0,15.2,10,0.00,,,0.00,WUHU21623XXSP,2013-05-02 05:57:00,
2013-05-01 23:02:00,67.3,8.9,30.17,NNE,22,3.6,12.3,10,0.00,,,0.00,WUHU21623XXSP,2013-05-02 06:02:00,
2013-05-01 23:07:00,67.3,8.9,30.16,NNE,22,10.7,12.3,10,0.00,,,0.00,WUHU21623XXSP,2013-05-02 06:07:00,
2013-05-01 23:12:00,67.3,8.9,30.16,NNE,22,2.7,10.7,10,0.00,,,0.00,WUHU21623XXSP,2013-05-02 06:12:00,
2013-05-01 23:17:00,67.1,8.8,30.16,NNE,22,5.8,10.1,10,0.00,,,0.00,WUHU21623XXSP,2013-05-02 06:17:00,
2013-05-01 23:22:00,66.9,8.6,30.16,NNE,22,9.2,13.0,10,0.00,,,0.00,WUHU21623XXSP,2013-05-02 06:22:00,
2013-05-01 23:27:00,67.1,8.8,30.16,NNE,22,13.0,14.1,10,0.00,,,0.00,WUHU21623XXSP,2013-05-02 06:27:00,
2013-05-01 23:32:00,66.9,8.6,30.17,NNE,22,0.0,14.1,10,0.00,,,0.00,WUHU21623XXSP,2013-05-02 06:32:00,
2013-05-01 23:37:00,66.7,8.5,30.17,ENE,67,3.4,11.0,10,0.00,,,0.00,WUHU21623XXSP,2013-05-02 06:37:00,
2013-05-01 23:42:00,66.4,8.2,30.17,NE,45,6.9,11.0,10,0.00,,,0.00,WUHU21623XXSP,2013-05-02 06:42:00,
2013-05-01 23:47:00,66.0,7.9,30.17,NNE,22,6.7,17.2,10,0.00,,,0.00,WUHU21623XXSP,2013-05-02 06:47:00,
2013-05-01 23:52:00,65.5,7.5,30.18,NNE,22,4.0,17.2,10,0.00,,,0.00,WUHU21623XXSP,2013-05-02 06:52:00,
2013-05-01 23:57:00,65.1,7.2,30.18,NNE,22,3.8,17.2,10,0.00,,,0.00,WUHU21623XXSP,2013-05-02 06:57:00,